Gwinn, MI

4:20 AM EDT on July 23, 2017 (GMT -0400)
Sawyer International

Weather History for KSAW - April, 2013

Change the Weather History Date:

Friday, April 5, 2013

  Actual Average (KESC) Record (KESC)
Temperature  
Mean Temperature 27 °F -  
Max Temperature 30 °F 39 °F 55 °F (2005)
Min Temperature 24 °F 24 °F -1 °F (1972)
Degree Days  
Heating Degree Days 38    
Moisture  
Dew Point 17 °F    
Average Humidity 65    
Maximum Humidity 76    
Minimum Humidity 55    
Precipitation  
Precipitation 0.00 in - - ()
Sea Level Pressure  
Sea Level Pressure 30.13 in    
Wind  
Wind Speed 11 mph (NNE)    
Max Wind Speed 21 mph    
Max Gust Speed 24 mph    
Visibility 10 miles    
Events      
Averages and records for this station are not official NWS values.
T = Trace of Precipitation, MM = Missing Value Source: NWS Daily Summary

Daily Weather History Graph

Daily Weather History Graph

Search for Another Location

Airport or City:

Trip Planner

Search our weather history database for the weather conditions in past years. The results will help you decide how hot, cold, wet, or windy it might be!

Date:

Astronomy

Apr. 05, 2013 Rise Set
Actual Time 7:21 AM EDT 8:24 PM EDT
Civil Twilight 6:50 AM EDT 8:54 PM EDT
Nautical Twilight 6:13 AM EDT 9:31 PM EDT
Astronomical Twilight 5:34 AM EDT 10:10 PM EDT
Moon 4:44 AM EDT (4/5) 3:33 PM EDT (4/5)
Length of Visible Light 14h 04m
Length of Day
13h 03m
Waning Crescent, 24% of the Moon is Illuminated
Apr 5
Waning Crescent
Apr 10
New
Apr 18
First Quarter
Apr 25
Full
May 2
Last Quarter

Hourly Weather History & Observations

Time (EDT) Temp. Windchill Dew Point Humidity Pressure Visibility Wind Dir Wind Speed Gust Speed Precip Events Conditions
12:17 AM 29.5 °F 21.8 °F 21.9 °F 73% 30.04 in 10.0 mi North 8.1 mph - N/A   Clear
12:36 AM 29.3 °F 20.2 °F 22.1 °F 75% 30.04 in 10.0 mi North 10.4 mph - N/A   Scattered Clouds
12:57 AM 29.1 °F 19.4 °F 22.1 °F 75% 30.05 in 10.0 mi North 11.5 mph - N/A   Scattered Clouds
1:17 AM 28.4 °F 17.5 °F 21.6 °F 76% 30.05 in 10.0 mi North 13.8 mph 17.3 mph N/A   Scattered Clouds
1:36 AM 28.9 °F 17.7 °F 20.3 °F 70% 30.05 in 10.0 mi NNE 15.0 mph - N/A   Clear
1:57 AM 28.0 °F 16.5 °F 19.4 °F 70% 30.06 in 10.0 mi North 15.0 mph - N/A   Clear
2:16 AM 28.2 °F 16.3 °F 18.5 °F 67% 30.07 in 10.0 mi North 16.1 mph - N/A   Clear
2:37 AM 28.0 °F 17.0 °F 18.0 °F 66% 30.07 in 10.0 mi North 13.8 mph - N/A   Clear
2:57 AM 28.2 °F 15.9 °F 18.9 °F 68% 30.07 in 10.0 mi North 17.3 mph 24.2 mph N/A   Mostly Cloudy
3:16 AM 27.5 °F 17.4 °F 17.6 °F 66% 30.07 in 10.0 mi North 11.5 mph 20.7 mph N/A   Scattered Clouds
3:37 AM 27.5 °F 16.3 °F 17.8 °F 67% 30.07 in 10.0 mi North 13.8 mph - N/A   Mostly Cloudy
3:56 AM 27.5 °F 15.0 °F 17.2 °F 65% 30.08 in 10.0 mi North 17.3 mph - N/A   Overcast
4:17 AM 27.3 °F 15.6 °F 16.9 °F 65% 30.09 in 10.0 mi North 15.0 mph - N/A   Mostly Cloudy
4:36 AM 27.0 °F 16.7 °F 16.7 °F 65% 30.09 in 10.0 mi North 11.5 mph 19.6 mph N/A   Mostly Cloudy
4:57 AM 26.4 °F 14.5 °F 16.0 °F 65% 30.10 in 10.0 mi North 15.0 mph - N/A   Mostly Cloudy
5:17 AM 26.6 °F 12.7 °F 15.6 °F 63% 30.11 in 10.0 mi North 20.7 mph - N/A   Mostly Cloudy
5:36 AM 26.6 °F 14.7 °F 15.8 °F 64% 30.12 in 10.0 mi North 15.0 mph 18.4 mph N/A   Mostly Cloudy
5:57 AM 26.4 °F 16.0 °F 15.8 °F 64% 30.13 in 10.0 mi North 11.5 mph - N/A   Overcast
6:50 AM 26.6 °F 16.8 °F 15.8 °F 64% 30.15 in 10.0 mi North 10.4 mph - N/A   Overcast
7:50 AM 24.8 °F 15.3 °F 15.8 °F 69% 30.17 in 10.0 mi NNW 9.2 mph - N/A   Overcast
8:50 AM 24.8 °F 12.9 °F 15.8 °F 69% 30.18 in 10.0 mi North 13.8 mph - N/A   Overcast
9:50 AM 26.6 °F 13.1 °F 15.8 °F 64% 30.20 in 10.0 mi North 19.6 mph - N/A   Overcast
10:50 AM 26.6 °F 15.7 °F 15.8 °F 64% 30.21 in 10.0 mi North 12.7 mph - N/A   Mostly Cloudy
11:50 AM 28.4 °F 22.2 °F 15.8 °F 59% 30.22 in 10.0 mi North 5.8 mph - N/A   Scattered Clouds
12:50 PM 28.4 °F 19.1 °F 15.8 °F 59% 30.21 in 10.0 mi NE 10.4 mph - N/A   Scattered Clouds
1:50 PM 30.2 °F 23.4 °F 15.8 °F 55% 30.21 in 10.0 mi ENE 6.9 mph - N/A   Partly Cloudy
2:50 PM 30.2 °F 20.8 °F 17.6 °F 60% 30.18 in 10.0 mi NE 11.5 mph - N/A   Clear
3:50 PM 30.2 °F 21.9 °F 15.8 °F 55% 30.17 in 10.0 mi NNE 9.2 mph - N/A   Clear
4:50 PM 30.2 °F 20.8 °F 17.6 °F 60% 30.17 in 10.0 mi ENE 11.5 mph - N/A   Clear
5:50 PM 30.2 °F 22.6 °F 17.6 °F 60% 30.17 in 10.0 mi NNE 8.1 mph - N/A   Clear
6:50 PM 28.4 °F 20.4 °F 15.8 °F 59% 30.17 in 10.0 mi NNE 8.1 mph - N/A   Clear
7:55 PM 28.4 °F 22.2 °F 15.8 °F 59% 30.17 in 10.0 mi NE 5.8 mph - N/A   Clear
8:50 PM 26.6 °F 22.6 °F 14.0 °F 59% 30.17 in 10.0 mi ENE 3.5 mph - N/A   Clear
9:50 PM 26.6 °F 22.6 °F 15.8 °F 64% 30.17 in 10.0 mi ENE 3.5 mph - N/A   Clear
10:17 PM 26.4 °F 20.9 °F 16.9 °F 67% 30.16 in 10.0 mi East 4.6 mph - N/A   Clear
10:36 PM 26.1 °F 21.9 °F 16.9 °F 68% 30.16 in 10.0 mi East 3.5 mph - N/A   Clear
10:57 PM 26.1 °F - 16.7 °F 68% 30.15 in 10.0 mi Calm Calm - N/A   Clear
11:17 PM 25.7 °F - 17.1 °F 70% 30.15 in 10.0 mi Calm Calm - N/A   Clear
11:36 PM 25.7 °F - 17.1 °F 70% 30.14 in 10.0 mi Calm Calm - N/A   Clear
11:57 PM 25.7 °F - 16.7 °F 69% 30.14 in 10.0 mi Calm Calm - N/A   Clear